Flag for U.S.A. Weather past 2 weeks in Fort Worth, Texas, U.S.A.

Now
71 °F

Light rain. Passing clouds.


Feels Like: 67 °F
Forecast: 77 / 91 °F
Wind: 8 mph from East

Location: Meacham International Airport

Current Time: Aug 29, 2014 at 7:27:41 AM

Latest Report: Aug 29, 2014 at 6:53 AM


Visibility: 8 mi

Pressure: 29.85 "Hg

Humidity: 93%

Dew point: 69 °F

Location of Fort WorthLocation

Historic Weather in Fort Worth — Graph

°F

Fort Worth temperature yesterday

Maximum temperature yesterday: 96 °F (at 2:53 PM)
Minimum temperature yesterday: 76 °F (at 5:53 AM)
Average temperature yesterday: 87 °F

Past Weeks' High & Low Weather Summary

 TemperatureHumidityPressure
High102 °F (Aug 22, 3:53 PM)93% (Aug 29, 6:00 AM)30.05 "Hg (Aug 29, 6:00 AM)
Low71 °F (Aug 29, 4:53 AM)23% (Aug 22, 4:53 PM)29.79 "Hg (Aug 28, 7:53 PM)
Average88 °F52%29.91 "Hg
* Reported Aug 14 6:53 AM — Aug 29 6:00 AM, Fort Worth, Weather by CustomWeather, © 2014

Note: Actual official high and low records may vary slightly from our data, if they occured in-between our weather recording intervals... More about our weather records

Advertising

Fort Worth weather history for previous 24 hours

 ConditionsComfort  
Time TempWeatherWind HumidityBarometerVisibility
6:00 AM
Aug 29
71 °FLight rain. Passing clouds.10 mph93%29.92 "Hg9 mi
4:53 AM71 °FMostly cloudy.6 mph87%29.91 "Hg10 mi
3:53 AM73 °FOvercast.8 mph79%29.91 "Hg10 mi
2:53 AM73 °FOvercast.12 mph79%29.91 "Hg10 mi
1:53 AM77 °FOvercast.15 mph66%29.90 "Hg10 mi
12:53 AM84 °FClear.16 mph61%29.86 "Hg10 mi
11:53 PM
Aug 28
85 °FClear.13 mph57%29.87 "Hg10 mi
10:53 PM87 °FClear.14 mph53%29.86 "Hg10 mi
9:53 PM90 °FPassing clouds.14 mph45%29.83 "Hg10 mi
8:53 PM91 °FPartly sunny.6 mph39%29.81 "Hg10 mi
7:53 PM92 °FSunny.12 mph36%29.79 "Hg10 mi
6:53 PM95 °FSunny.10 mph31%29.79 "Hg10 mi
5:53 PM96 °FPassing clouds.8 mph30%29.80 "Hg10 mi
4:53 PM96 °FScattered clouds.7 mph31%29.80 "Hg10 mi
3:53 PM96 °FScattered clouds.14 mph34%29.83 "Hg10 mi
2:53 PM96 °FSunny.10 mph35%29.86 "Hg10 mi
1:53 PM95 °FScattered clouds.10 mph31%29.88 "Hg10 mi
12:53 PM92 °FPartly sunny.8 mph40%29.91 "Hg10 mi
11:53 AM90 °FPassing clouds.9 mph45%29.93 "Hg10 mi
10:53 AM89 °FSunny.9 mph46%29.94 "Hg10 mi
9:53 AM86 °FSunny.12 mph53%29.94 "Hg10 mi
8:53 AM82 °FSunny.9 mph60%29.94 "Hg10 mi
7:53 AM78 °FClear.5 mph66%29.93 "Hg10 mi
Weather by CustomWeather, © 2014

See weather overviewHow to use our weather pages